This demonstration page uses our WeatherBlox Daily Observations layout. Learn more.

Left ArrowRight Arrow

44.8408, -93.29828

Hourly Observations for March 2, 2020

Temp ( °F °C ) Dew Point ( °F °C ) Humidity (%) Winds ( mph kmh ) Pressure ( in mb ) Visibility ( mi km ) Precip ( " mm )
12:53 am 00:53 Cloudy 35 1.7 27 -2.8 72 72 W 9 15 29.83 1010 10 16 0.00 0.00
1:53 am 01:53 Cloudy 35 1.7 27 -2.8 72 72 NW 15 24 29.84 1011 10 16 0.00 0.00
2:53 am 02:53 Cloudy 34 1.1 25 -3.9 70 70 NW 13 20 29.82 1010 10 16 0.00 0.00
3:53 am 03:53 Cloudy 34 1.1 23 -5 64 64 NW 10 17 29.82 1010 10 16 0.00 0.00
4:53 am 04:53 Cloudy 33 0.6 24 -4.4 70 70 WNW 8 13 29.82 1010 10 16 0.00 0.00
5:53 am 05:53 Cloudy 32 0 23 -5 69 69 NW 15 24 29.83 1010 10 16 0.00 0.00
6:53 am 06:53 Cloudy 32 0 23 -5 69 69 WNW 9 15 29.83 1010 10 16 0.00 0.00
7:53 am 07:53 Cloudy 31 -0.6 22 -5.6 69 69 WNW 10 17 29.83 1010 10 16 0.00 0.00
8:53 am 08:53 Mostly Cloudy 32 0 21 -6.1 64 64 WNW 12 19 29.83 1010 10 16 0.00 0.00
8:59 am 08:59 Partly Cloudy 32 0 22 -5.6 66 66 NW 10 17 29.85 1011 10 16 0.00 0.00
9:18 am 09:18 Mostly Cloudy 31 -0.6 21 -6.1 67 67 W 9 15 29.85 1011 10 16 0.00 0.00
9:44 am 09:44 Partly Cloudy 32 0 21 -6.1 64 64 WNW 12 19 29.85 1011 10 16 0.00 0.00
9:53 am 09:53 Mostly Sunny 33 0.6 22 -5.6 64 64 NW 8 13 29.83 1010 10 16 0.00 0.00
10:15 am 10:15 Mostly Cloudy 32 0 21 -6.1 64 64 W 9 15 29.85 1011 10 16 0.00 0.00
10:49 am 10:49 Partly Cloudy 34 1 21 -6 60 60 WSW 9 15 29.83 1010 10 16 0.00 0.00
10:53 am 10:53 Partly Cloudy 34 1.1 22 -5.6 61 61 WSW 9 15 29.82 1010 10 16 0.00 0.00
11:53 am 11:53 Mostly Sunny 34 1.1 22 -5.6 61 61 WSW 12 19 29.80 1009 10 16 0.00 0.00
12:53 pm 12:53 Mostly Sunny 34 1.1 21 -6.1 59 59 W 12 19 29.77 1008 10 16 0.00 0.00
1:53 pm 13:53 Mostly Sunny 34 1.1 21 -6.1 59 59 WSW 9 15 29.74 1007 10 16 0.00 0.00
2:53 pm 14:53 Mostly Sunny 35 1.7 22 -5.6 59 59 SW 8 13 29.71 1006 10 16 0.00 0.00
3:53 pm 15:53 Mostly Sunny 35 1.7 22 -5.6 59 59 SSW 12 19 29.70 1006 10 16 0.00 0.00
4:53 pm 16:53 Partly Cloudy 34 1.1 22 -5.6 61 61 SSW 9 15 29.67 1005 10 16 0.00 0.00
5:53 pm 17:53 Mostly Cloudy 33 0.6 23 -5 66 66 SW 10 17 29.67 1005 10 16 0.00 0.00
6:53 pm 18:53 Mostly Cloudy 32 0 24 -4.4 73 73 SSW 8 13 29.67 1005 10 16 0.00 0.00
7:53 pm 19:53 Mostly Cloudy 32 0 24 -4.4 73 73 S 8 13 29.64 1004 10 16 0.00 0.00
8:53 pm 20:53 Mostly Cloudy 32 0 25 -3.9 75 75 S 7 11 29.62 1003 10 16 0.00 0.00
9:53 pm 21:53 Mostly Cloudy 31 -0.6 25 -3.9 79 79 SSE 10 17 29.60 1003 10 16 0.00 0.00
10:53 pm 22:53 Mostly Cloudy 31 -0.6 25 -3.9 79 79 SSE 8 13 29.57 1002 10 16 0.00 0.00
11:53 pm 23:53 Cloudy 32 0 25 -3.9 75 75 S 10 17 29.54 1000 10 16 0.00 0.00

Powered by AerisWeather